TimeEDT,TemperatureF,Dew PointF,Humidity,Sea Level PressureIn,VisibilityMPH,Wind Direction,Wind SpeedMPH,Gust SpeedMPH,PrecipitationIn,Events,Conditions,WindDirDegrees,DateUTC
1:52 AM,43.0,36.0,76,30.30,10.0,Calm,Calm,-,N/A,,Scattered Clouds,0,2012-10-14 05:52:00
2:52 AM,43.0,37.0,80,30.24,10.0,Calm,Calm,-,0.00,Rain,Light Rain,0,2012-10-14 06:52:00
3:52 AM,45.0,39.0,80,30.23,10.0,Calm,Calm,-,0.00,,Scattered Clouds,0,2012-10-14 07:52:00
4:52 AM,46.0,41.0,83,30.21,10.0,Calm,Calm,-,N/A,,Mostly Cloudy,0,2012-10-14 08:52:00
5:52 AM,46.9,42.1,83,30.19,9.0,Calm,Calm,-,0.00,Rain,Light Rain,0,2012-10-14 09:52:00
6:52 AM,48.0,44.1,86,30.20,10.0,Calm,Calm,-,0.01,Rain,Light Rain,0,2012-10-14 10:52:00
7:52 AM,53.1,46.9,80,30.18,6.0,SSW,6.9,-,0.03,Rain,Light Rain,200,2012-10-14 11:52:00
8:52 AM,54.0,48.0,80,30.17,10.0,SSW,5.8,-,0.02,Rain,Light Rain,200,2012-10-14 12:52:00
9:52 AM,55.9,48.0,75,30.17,10.0,SW,5.8,-,0.00,Rain,Light Rain,230,2012-10-14 13:52:00
10:52 AM,57.9,48.9,72,30.16,10.0,SW,9.2,-,0.00,,Overcast,220,2012-10-14 14:52:00
11:52 AM,61.0,48.0,62,30.14,10.0,SSW,9.2,19.6,N/A,,Overcast,210,2012-10-14 15:52:00
12:52 PM,63.0,48.0,58,30.12,10.0,SW,8.1,20.7,N/A,,Overcast,220,2012-10-14 16:52:00
1:52 PM,64.9,48.0,54,30.09,10.0,SSW,11.5,20.7,N/A,,Overcast,210,2012-10-14 17:52:00
2:52 PM,66.0,48.0,52,30.06,10.0,SW,9.2,19.6,N/A,,Overcast,220,2012-10-14 18:52:00
3:52 PM,66.9,50.0,54,30.04,10.0,SSW,12.7,17.3,N/A,,Mostly Cloudy,200,2012-10-14 19:52:00
4:52 PM,66.9,51.1,57,30.04,10.0,SSW,8.1,-,N/A,,Mostly Cloudy,200,2012-10-14 20:52:00
5:52 PM,64.9,51.1,61,30.03,10.0,South,6.9,-,N/A,,Clear,190,2012-10-14 21:52:00
6:52 PM,63.0,51.1,65,30.02,10.0,South,6.9,-,N/A,,Clear,180,2012-10-14 22:52:00
7:52 PM,62.1,52.0,70,30.02,10.0,SSW,5.8,-,N/A,,Clear,200,2012-10-14 23:52:00
8:52 PM,62.1,53.1,72,30.01,10.0,South,8.1,-,N/A,,Clear,190,2012-10-15 00:52:00
9:52 PM,62.1,54.0,75,30.00,10.0,South,9.2,-,N/A,,Clear,190,2012-10-15 01:52:00
10:52 PM,62.1,54.0,75,29.99,10.0,SSW,6.9,-,N/A,,Clear,200,2012-10-15 02:52:00
11:52 PM,63.0,55.0,75,29.98,10.0,South,5.8,-,N/A,,Clear,170,2012-10-15 03:52:00